Location: Bukit Lungun
(2.6833°N, 113.9667°E)
Time: 10:18:50
(UTC+00:00)

ATLAS 2AS CENTAUR R/B - Pass Details

Date: 02 March 2021
Orbit: 949 x 1263 km, 63.7° (Epoch: 20 April)

Event Time Altitude Azimuth Distance (km) Brightness Sun altitude
Rises 21:51:52 0° 217° (SW) 4,031 5.4 -11.3°
Reaches altitude 10° 21:54:39 10° 224° (SW) 3,109 4.8 -10.6°
Maximum altitude 22:01:44 45° 293° (WNW) 1,633 3.3 -8.9°
Drops below altitude 10° 22:09:07 10° 4° (N) 3,231 5.2 -7.0°
Sets 22:12:06 0° 10° (N) 4,203 5.9 -6.3°
